This is the latest recevied weather packets stored in our database for station/object SP3VSS-13. If no packets are shown the sender has not sent any weather packets the latest 10 day(s).
| Time | Temp. | Humidity | Pressure | Rain* | Wind** | Luminosity | Snow |
|---|---|---|---|---|---|---|---|
| 1788024142 | 22.78° C | 54% | 1001.1 hPa | - | - | - | - |
| 1788023242 | 22.78° C | 54% | 1001 hPa | - | - | - | - |
| 1788022341 | 22.78° C | 54% | 1001 hPa | - | - | - | - |
| 1788021442 | 22.78° C | 54% | 1001 hPa | - | - | - | - |
| 1788020539 | 22.78° C | 53% | 1001 hPa | - | - | - | - |
| 1788019638 | 23.33° C | 52% | 1001 hPa | - | - | - | - |
| 1788018737 | 23.33° C | 52% | 1000.9 hPa | - | - | - | - |
| 1788017836 | 22.78° C | 52% | 1001 hPa | - | - | - | - |
| 1788016629 | 22.78° C | 57% | 1000.9 hPa | - | - | - | - |
| 1788015728 | 22.78° C | 57% | 1001 hPa | - | - | - | - |
| 1788014827 | 22.78° C | 57% | 1000.8 hPa | - | - | - | - |
| 1788013926 | 22.78° C | 57% | 1000.9 hPa | - | - | - | - |
| 1788013025 | 22.78° C | 57% | 1000.8 hPa | - | - | - | - |
| 1788012124 | 22.78° C | 62% | 1000.7 hPa | - | - | - | - |
| 1788011223 | 22.78° C | 62% | 1000.7 hPa | - | - | - | - |
| 1788010323 | 22.78° C | 63% | 1000.7 hPa | - | - | - | - |
| 1788009421 | 22.78° C | 63% | 1000.7 hPa | - | - | - | - |
| 1788008520 | 22.78° C | 63% | 1000.6 hPa | - | - | - | - |
| 1788007619 | 21.67° C | 66% | 1000.5 hPa | - | - | - | - |
| 1788006718 | 21.67° C | 66% | 1000.4 hPa | - | - | - | - |
| 1788005817 | 21.67° C | 69% | 1000.4 hPa | - | - | - | - |
| 1788004916 | 22.78° C | 66% | 1000.6 hPa | - | - | - | - |
| 1788004016 | 22.22° C | 69% | 1000.5 hPa | - | - | - | - |
| 1788003114 | 22.22° C | 69% | 1000.7 hPa | - | - | - | - |
| 1788002213 | 22.22° C | 66% | 1000.8 hPa | - | - | - | - |
* Rain since midnight (hover to see other rain measurements)
** Current wind speed in m/s (hover to see current wind gust speed)